CW5363 Weather Reports


time (UTC)temp
F
wind
direction
speed
knots
gust
knots
rain 1hr
in
rain 24hr
in
rain mn
in
humidity
%
barometer
mb
20260505111840 49 321 0.0 0.0 0.00 0.00 0.00 79 1015.2
20260505111404 49 321 0.0 0.0 0.00 0.00 0.00 78 1015.2
20260505110845 49 321 0.0 0.0 0.00 0.00 0.00 80 1015.2
20260505110328 49 321 0.0 0.0 0.00 0.00 0.00 78 1015.0
20260505101830 50 321 0.0 0.0 0.00 0.00 0.00 76 1015.0
20260505101333 51 321 0.0 0.0 0.00 0.00 0.00 77 1015.0
20260505100835 51 321 0.0 0.0 0.00 0.00 0.00 76 1015.0
20260505100354 51 321 0.0 0.0 0.00 0.00 0.00 76 1014.7
20260505095905 51 321 0.0 0.0 0.00 0.00 0.00 75 1014.7
20260505095346 51 321 0.0 0.0 0.00 0.00 0.00 75 1014.7
20260505094905 52 321 0.0 0.0 0.00 0.00 0.00 74 1014.7
20260505094330 52 321 0.0 0.0 0.00 0.00 0.00 73 1014.7
20260505093855 52 321 0.0 0.0 0.00 0.00 0.00 72 1014.7
20260505093332 52 321 0.0 0.0 0.00 0.00 0.00 72 1014.7
20260505092836 52 321 0.0 0.0 0.00 0.00 0.00 71 1014.7
20260505092340 52 321 0.0 0.0 0.00 0.00 0.00 71 1014.7
20260505091839 52 321 0.0 0.0 0.00 0.00 0.00 71 1014.7
20260505091345 52 321 0.0 0.0 0.00 0.00 0.00 71 1014.7
20260505090848 52 321 0.0 1.7 0.00 0.00 0.00 71 1014.7
20260505090346 53 321 0.9 1.7 0.00 0.00 0.00 71 1014.7
20260505085839 53 321 0.9 1.7 0.00 0.00 0.00 71 1014.7
20260505085345 53 321 0.9 1.7 0.00 0.00 0.00 72 1014.7
20260505084844 53 323 0.0 0.0 0.00 0.00 0.00 71 1014.7
20260505084326 53 321 0.0 0.0 0.00 0.00 0.00 70 1014.7
20260505083908 53 321 0.0 0.0 0.00 0.00 0.00 71 1014.7
20260505083345 54 321 0.0 0.0 0.00 0.00 0.00 71 1014.6
20260505082830 54 321 0.0 0.0 0.00 0.00 0.00 70 1014.6
20260505082352 55 321 0.0 0.0 0.00 0.00 0.00 68 1014.6
20260505081830 55 317 0.0 4.3 0.00 0.00 0.00 69 1014.5
20260505081354 55 315 0.0 4.3 0.00 0.00 0.00 68 1014.5
20260505080834 55 11 0.9 4.3 0.00 0.00 0.00 69 1014.5
20260505080333 55 360 0.9 4.3 0.00 0.00 0.00 69 1014.4
20260505075828 54 324 0.0 0.0 0.00 0.00 0.00 70 1014.4
20260505075332 54 324 0.0 1.7 0.00 0.00 0.00 70 1014.4
20260505074831 54 324 0.9 1.7 0.00 0.00 0.00 69 1014.5
20260505074355 54 322 0.0 0.0 0.00 0.00 0.00 69 1014.5
20260505073836 54 322 0.0 0.0 0.00 0.00 0.00 69 1014.5
20260505073333 54 322 0.0 0.0 0.00 0.00 0.00 69 1014.6
20260505072835 54 322 0.0 0.0 0.00 0.00 0.00 69 1014.6
20260505072339 55 322 0.0 0.0 0.00 0.00 0.00 69 1014.6
20260505071838 54 322 0.0 0.0 0.00 0.00 0.00 69 1014.7
20260505071344 54 322 0.0 0.0 0.00 0.00 0.00 69 1014.7
20260505070829 55 322 0.0 0.0 0.00 0.00 0.00 68 1014.7
20260505070328 55 322 0.0 0.0 0.00 0.00 0.00 68 1014.7
20260505065840 55 322 0.0 0.0 0.00 0.00 0.00 68 1014.7
20260505065342 55 322 0.0 0.0 0.00 0.00 0.00 68 1014.7
20260505064840 55 322 0.0 0.0 0.00 0.00 0.00 67 1014.8
20260505064325 55 322 0.0 1.7 0.00 0.00 0.00 68 1014.8
20260505063852 55 322 0.0 1.7 0.00 0.00 0.00 68 1014.8
20260505063329 55 338 0.0 1.7 0.00 0.00 0.00 67 1015.1
20260505062834 55 338 0.0 1.7 0.00 0.00 0.00 68 1015.1
20260505062339 55 338 0.0 3.5 0.00 0.00 0.00 67 1015.1
20260505061839 56 338 0.0 3.5 0.00 0.00 0.00 67 1015.1
20260505061324 56 331 0.0 0.0 0.00 0.00 0.00 67 1015.1
20260505060830 56 331 0.0 0.0 0.00 0.00 0.00 66 1015.1
20260505060328 56 331 0.0 0.0 0.00 0.00 0.00 66 1015.0
20260505055900 56 331 0.0 0.0 0.00 0.00 0.00 65 1015.0
20260505055401 57 331 0.0 0.0 0.00 0.00 0.00 64 1015.0
20260505054840 57 331 0.0 0.9 0.00 0.00 0.00 64 1015.0
20260505054344 58 331 0.0 0.9 0.00 0.00 0.00 63 1015.0
20260505053826 58 331 0.0 3.5 0.00 0.00 0.00 62 1015.0
20260505053330 58 331 0.9 3.5 0.00 0.00 0.00 62 1014.9
20260505052841 58 342 0.9 1.7 0.00 0.00 0.00 62 1014.9
20260505052324 58 337 0.0 1.7 0.00 0.00 0.00 62 1014.9
20260505051825 58 126 0.0 1.7 0.00 0.00 0.00 62 1015.0
20260505051329 59 167 0.0 1.7 0.00 0.00 0.00 62 1015.0
20260505050829 59 167 0.0 1.7 0.00 0.00 0.00 62 1015.0
20260505050329 59 177 0.0 1.7 0.00 0.00 0.00 62 1015.0
20260505041333 58 310 0.9 1.7 0.00 0.00 0.00 65 1015.2
20260505040839 58 310 0.0 1.7 0.00 0.00 0.00 66 1015.2
20260505040358 57 32 0.0 0.0 0.00 0.00 0.00 66 1015.2
20260505035827 57 32 0.0 0.0 0.00 0.00 0.00 67 1015.2
20260505035329 57 17 0.0 0.0 0.00 0.00 0.00 67 1015.2
20260505034848 57 355 0.0 0.0 0.00 0.00 0.00 68 1015.3
20260505034331 57 355 0.0 0.0 0.00 0.00 0.00 69 1015.3
20260505033832 57 355 0.0 0.0 0.00 0.00 0.00 68 1015.3
20260505033331 57 355 0.0 0.0 0.00 0.00 0.00 68 1015.3
20260505032836 57 355 0.0 0.0 0.00 0.00 0.00 68 1015.3
20260505032338 57 355 0.0 0.0 0.00 0.00 0.00 68 1015.3
20260505031840 57 355 0.0 0.0 0.00 0.00 0.00 69 1015.4
20260505031346 57 355 0.0 0.0 0.00 0.00 0.00 68 1015.4
20260505030826 58 355 0.0 0.0 0.00 0.00 0.00 67 1015.4
20260505030329 58 355 0.0 0.0 0.00 0.00 0.00 67 1015.3
20260505025834 58 355 0.0 0.0 0.00 0.00 0.00 67 1015.3
20260505025355 58 355 0.0 0.0 0.00 0.00 0.00 67 1015.3
20260505024837 58 355 0.0 0.0 0.00 0.00 0.00 67 1015.2
20260505024341 58 355 0.0 0.0 0.00 0.00 0.00 67 1015.2
20260505023843 58 355 0.0 0.0 0.00 0.00 0.00 67 1015.2
20260505023342 58 355 0.0 0.0 0.00 0.00 0.00 67 1015.2
20260505022826 58 360 0.0 0.0 0.00 0.00 0.00 67 1015.2
20260505022332 59 360 0.0 0.0 0.00 0.00 0.00 66 1015.2
20260505021830 59 360 0.0 0.0 0.00 0.00 0.00 65 1015.2
20260505021342 59 360 0.0 0.0 0.00 0.00 0.00 64 1015.2
20260505020843 60 360 0.0 0.0 0.00 0.00 0.00 64 1015.2
20260505020343 60 360 0.0 0.0 0.00 0.00 0.00 63 1015.1
20260505015827 60 360 0.0 0.0 0.00 0.00 0.00 63 1015.1
20260505015329 60 360 0.0 0.0 0.00 0.00 0.00 62 1015.1
20260505014831 60 324 0.0 0.9 0.00 0.00 0.00 62 1015.0
20260505014335 60 334 0.0 0.9 0.00 0.00 0.00 62 1015.0
20260505013837 60 333 0.0 1.7 0.00 0.00 0.00 62 1015.0
20260505013336 61 333 0.9 3.5 0.00 0.00 0.00 61 1014.8
20260505012841 61 333 0.9 3.5 0.00 0.00 0.00 61 1014.8
20260505012343 61 331 0.0 1.7 0.00 0.00 0.00 60 1014.8
20260505011842 61 325 0.0 1.7 0.00 0.00 0.00 60 1014.7
20260505011326 61 325 0.9 1.7 0.00 0.00 0.00 59 1014.7
20260505010828 62 24 0.0 0.9 0.00 0.00 0.00 59 1014.7
20260505010331 62 24 0.0 1.7 0.00 0.00 0.00 59 1014.7
20260505005843 62 24 0.0 1.7 0.00 0.00 0.00 58 1014.7
20260505005345 63 25 0.9 1.7 0.00 0.00 0.00 58 1014.7
20260505004844 63 28 0.0 0.9 0.00 0.00 0.00 57 1014.6
20260505004329 63 28 0.0 1.7 0.00 0.00 0.00 57 1014.6
20260505003832 63 28 0.0 1.7 0.00 0.00 0.00 57 1014.6
20260505003351 63 332 0.0 1.7 0.00 0.00 0.00 57 1014.5
20260505002842 64 333 0.0 1.7 0.00 0.00 0.00 56 1014.5
20260505002342 64 67 0.0 0.0 0.00 0.00 0.00 56 1014.5
20260505001822 64 14 0.0 0.0 0.00 0.00 0.00 56 1014.5
20260505001337 64 14 0.0 0.0 0.00 0.00 0.00 56 1014.5
20260505000838 64 132 0.0 0.0 0.00 0.00 0.00 55 1014.5
20260505000338 64 131 0.0 0.0 0.00 0.00 0.00 56 1014.2
20260504235843 65 131 0.0 1.7 0.00 0.00 0.00 55 1014.2
20260504235345 65 131 0.0 1.7 0.00 0.00 0.00 55 1014.2
20260504234843 65 124 0.0 3.5 0.00 0.00 0.00 54 1014.2
20260504234349 65 124 0.9 3.5 0.00 0.00 0.00 54 1014.2
20260504233829 65 309 0.9 2.6 0.00 0.00 0.00 53 1014.2
20260504233346 65 143 0.0 6.1 0.00 0.00 0.00 54 1014.1
20260504232837 66 141 1.7 6.1 0.00 0.00 0.00 54 1014.1
20260504232338 66 182 0.9 4.3 0.00 0.00 0.00 53 1014.1
20260504231857 66 146 0.9 4.3 0.00 0.00 0.00 53 1014.1
20260504231326 66 123 0.0 3.5 0.00 0.00 0.00 53 1014.1
20260504230828 66 123 0.0 5.2 0.00 0.00 0.00 53 1014.1
20260504230326 66 140 1.7 5.2 0.00 0.00 0.00 52 1014.0
20260504225831 66 177 2.6 5.2 0.00 0.00 0.00 52 1014.0
20260504225333 67 123 2.6 6.1 0.00 0.00 0.00 52 1014.0
20260504224852 67 218 2.6 6.1 0.00 0.00 0.00 51 1014.1
20260504224344 67 110 0.9 5.2 0.00 0.00 0.00 51 1014.1
20260504223844 67 198 2.6 4.3 0.00 0.00 0.00 50 1014.1
20260504223342 67 148 0.9 5.2 0.00 0.00 0.00 50 1014.1
20260504222847 67 326 0.9 5.2 0.00 0.00 0.00 50 1014.1
20260504222328 68 207 2.6 7.0 0.00 0.00 0.00 50 1014.1
20260504221846 68 150 2.6 7.0 0.00 0.00 0.00 50 1014.1
20260504221330 68 164 1.7 5.2 0.00 0.00 0.00 50 1014.1
20260504220831 68 139 1.7 5.2 0.00 0.00 0.00 49 1014.1
20260504220350 68 134 2.6 5.2 0.00 0.00 0.00 49 1013.9
20260504215832 69 148 1.7 5.2 0.00 0.00 0.00 49 1013.9
20260504215334 69 132 1.7 5.2 0.00 0.00 0.00 48 1013.9
20260504214853 69 194 2.6 5.2 0.00 0.00 0.00 48 1013.8
20260504214337 69 128 1.7 6.1 0.00 0.00 0.00 48 1013.8
20260504213838 69 181 2.6 7.0 0.00 0.00 0.00 48 1013.8
20260504213337 69 174 4.3 7.0 0.00 0.00 0.00 47 1013.7
20260504212841 69 157 2.6 5.2 0.00 0.00 0.00 47 1013.7
20260504212343 69 113 2.6 5.2 0.00 0.00 0.00 47 1013.7
20260504211826 70 157 0.9 5.2 0.00 0.00 0.00 48 1013.6
20260504211339 70 142 1.7 5.2 0.00 0.00 0.00 46 1013.6
20260504210841 70 139 2.6 7.0 0.00 0.00 0.00 47 1013.6
20260504210341 70 165 2.6 7.0 0.00 0.00 0.00 46 1013.6
20260504205845 70 155 1.7 5.2 0.00 0.00 0.00 46 1013.6
20260504205326 70 329 1.7 4.3 0.00 0.00 0.00 46 1013.6
20260504204827 71 109 2.6 6.1 0.00 0.00 0.00 45 1013.6
20260504204343 71 147 2.6 7.8 0.00 0.00 0.00 45 1013.6
20260504203827 72 160 1.7 7.8 0.00 0.00 0.00 44 1013.6
20260504203347 72 146 2.6 5.2 0.00 0.00 0.00 45 1013.6
20260504202830 72 124 0.9 6.1 0.00 0.00 0.00 45 1013.6
20260504202332 72 157 2.6 6.1 0.00 0.00 0.00 45 1013.6
20260504201832 72 128 3.5 6.1 0.00 0.00 0.00 44 1013.7
20260504201338 72 182 1.7 7.8 0.00 0.00 0.00 44 1013.7
20260504200838 72 154 1.7 7.8 0.00 0.00 0.00 43 1013.7
20260504200358 72 29 1.7 4.3 0.00 0.00 0.00 45 1014.0
20260504195841 72 157 1.7 5.2 0.00 0.00 0.00 45 1014.0
20260504195343 72 355 1.7 8.7 0.00 0.00 0.00 43 1014.0
20260504194827 72 144 2.6 8.7 0.00 0.00 0.00 43 1014.1
20260504194343 72 188 2.6 7.0 0.00 0.00 0.00 43 1014.1
20260504193844 73 184 2.6 5.2 0.00 0.00 0.00 42 1014.1
20260504193344 72 161 0.9 4.3 0.00 0.00 0.00 42 1014.1
20260504192830 72 171 0.0 7.8 0.00 0.00 0.00 44 1014.1
20260504192351 72 180 5.2 7.8 0.00 0.00 0.00 41 1014.1
20260504191832 72 218 3.5 7.0 0.00 0.00 0.00 42 1014.4
20260504191345 72 161 3.5 7.8 0.00 0.00 0.00 41 1014.4
20260504190906 73 155 2.6 6.1 0.00 0.00 0.00 41 1014.4
20260504190344 73 200 2.6 7.8 0.00 0.00 0.00 39 1014.6
20260504185829 73 207 0.9 6.1 0.00 0.00 0.00 39 1014.6
20260504185331 73 151 1.7 5.2 0.00 0.00 0.00 40 1014.6
20260504184829 73 134 2.6 5.2 0.00 0.00 0.00 37 1014.6
20260504184341 74 122 2.6 5.2 0.00 0.00 0.00 38 1014.6
20260504183842 73 161 0.9 7.0 0.00 0.00 0.00 37 1014.6
20260504183341 74 138 2.6 6.1 0.00 0.00 0.00 35 1014.6
20260504182826 74 186 2.6 6.1 0.00 0.00 0.00 33 1014.6
20260504182328 74 111 0.9 5.2 0.00 0.00 0.00 30 1014.6
20260504181907 74 81 2.6 5.2 0.00 0.00 0.00 30 1014.7
20260504181337 74 190 0.9 5.2 0.00 0.00 0.00 31 1014.7
20260504180843 74 85 2.6 5.2 0.00 0.00 0.00 30 1014.7
20260504180323 73 37 1.7 4.3 0.00 0.00 0.00 29 1015.1
20260504175851 72 225 0.9 5.2 0.00 0.00 0.00 33 1015.1
20260504175333 72 95 0.9 5.2 0.00 0.00 0.00 30 1015.1
20260504174851 73 172 1.7 4.3 0.00 0.00 0.00 30 1015.2
20260504174344 73 186 1.7 4.3 0.00 0.00 0.00 31 1015.2
20260504173844 74 194 0.9 4.3 0.00 0.00 0.00 30 1015.2
20260504173341 73 123 0.9 5.2 0.00 0.00 0.00 30 1015.5
20260504172845 73 123 1.7 5.2 0.00 0.00 0.00 31 1015.5
20260504172345 72 223 0.9 1.7 0.00 0.00 0.00 30 1015.5
20260504171825 71 35 0.9 3.5 0.00 0.00 0.00 31 1015.8
20260504171335 71 62 1.7 4.3 0.00 0.00 0.00 31 1015.8
20260504170836 71 197 0.9 4.3 0.00 0.00 0.00 30 1015.8
20260504170354 71 61 1.7 4.3 0.00 0.00 0.00 33 1015.9
20260504160332 66 184 0.0 0.0 0.00 0.00 0.00 36 1016.8
20260504150905 63 169 0.0 0.0 0.00 0.00 0.00 45 1017.2
20260504150324 62 169 0.0 0.0 0.00 0.00 0.00 49 1017.3
20260504140902 56 221 0.0 0.0 0.00 0.00 0.00 67 1017.5
20260504140340 55 157 0.0 0.0 0.00 0.00 0.00 68 1017.5
20260504130405 44 171 0.0 1.7 0.00 0.00 0.00 90 1016.9